This is the latest recevied weather packets stored in our database for station/object M0ADS. If no packets are shown the sender has not sent any weather packets the latest 1 day(s).
| Time | Temp. | Humidity | Pressure | Rain* | Wind** | Luminosity | Snow |
|---|---|---|---|---|---|---|---|
| 1778004487 | 10° C | 76% | 1013.7 hPa | 0 mm | 0 m/s | - | - |
| 1778003585 | 10.56° C | 76% | 1013.7 hPa | 0 mm | 0 m/s | - | - |
| 1778002685 | 10.56° C | 75% | 1013.7 hPa | 0 mm | 0 m/s | - | - |
| 1778001784 | 11.11° C | 75% | 1013.6 hPa | 0 mm | 0 m/s | - | - |
| 1778000885 | 11.11° C | 74% | 1013.6 hPa | 0 mm | 0 m/s | - | - |
| 1777999985 | 11.11° C | 73% | 1013.6 hPa | 0 mm | 0 m/s | - | - |
| 1777999085 | 11.11° C | 73% | 1013.6 hPa | 0 mm | 0 m/s | - | - |
| 1777998183 | 11.67° C | 71% | 1013.5 hPa | 0 mm | 0 m/s | - | - |
| 1777997281 | 11.67° C | 66% | 1013.4 hPa | 0 mm | 0 m/s | - | - |
| 1777996379 | 12.22° C | 63% | 1013.3 hPa | 0 mm | 0 m/s | - | - |
| 1777995479 | 12.78° C | 62% | 1013.2 hPa | 0 mm | 0 m/s | - | - |
| 1777994577 | 12.78° C | 62% | 1013.3 hPa | 0 mm | 0 m/s | - | - |
| 1777993674 | 12.78° C | 63% | 1013.2 hPa | 0 mm | 0 m/s | - | - |
| 1777992774 | 12.78° C | 61% | 1013.4 hPa | 0 mm | 0 m/s | - | - |
| 1777991874 | 13.33° C | 62% | 1013.2 hPa | 0 mm | 0 m/s | - | - |
| 1777990974 | 13.33° C | 59% | 1013.2 hPa | 0 mm | 0 m/s | - | - |
| 1777990072 | 13.89° C | 59% | 1013.3 hPa | 0 mm | 0 m/s | - | - |
| 1777989172 | 14.44° C | 59% | 1013.3 hPa | 0 mm | 0 m/s | - | - |
| 1777988272 | 14.44° C | 58% | 1013.3 hPa | 0 mm | 0 m/s | - | - |
| 1777987372 | 13.89° C | 62% | 1013.2 hPa | 0 mm | 0 m/s | - | - |
| 1777986470 | 13.33° C | 60% | 1013.2 hPa | 0 mm | 0 m/s | - | - |
| 1777985569 | 13.33° C | 59% | 1013.2 hPa | 0 mm | 0 m/s | - | - |
| 1777984669 | 13.33° C | 59% | 1013.1 hPa | 0 mm | 0 m/s | - | - |
| 1777983767 | 14.44° C | 56% | 1013.1 hPa | 0 mm | 0 m/s | - | - |
| 1777982868 | 14.44° C | 57% | 1013.1 hPa | 0 mm | 0 m/s | - | - |
* Rain latest hour (hover to see other rain measurements)
** Current wind speed in m/s (hover to see current wind gust speed)